Location: Agadir Irigdalene
(31.2522°N, 8.7797°W)
Time: 05:37:32
(UTC+00:00)

Cosmos 1707 Rocket - Pass Details

Date: 01 December 2020
Orbit: 605 x 631 km, 82.5° (Epoch: 16 January)

Event Time Altitude Azimuth Distance (km) Brightness Sun altitude
Rises 19:03:46 0° 171° (S) 2,899 7.1 -19.2°
Reaches altitude 10° 19:06:04 10° 165° (SSE) 1,992 6.2 -19.7°
Enters shadow 19:09:42 43° 117° (ESE) 877 3.9 -20.5°
